Location: Bosdarros
(43.2167°N, 0.3667°W)
Time: 11:33:15
(UTC+00:00)

FENGYUN 1C DEB - Pass Details

Date: 31 October 2021
Orbit: 805 x 871 km, 98.8° (Epoch: 26 November)

Event Time Altitude Azimuth Distance (km) Brightness Sun altitude
Exits shadow 20:39:52 19° 281° (WNW) 1,836 ? -41.1°
Drops below altitude 10° 20:42:50 10° 315° (NW) 2,413 ? -41.6°
Sets 20:45:51 0° 332° (NNW) 3,360 ? -42.1°
